When you browse on this site, cookies collect data to enhance your experience and personalize the content and advertising you see.
Visit our Privacy Policy to learn more. By continuing to use the site, you agree to this use of cookies and data.
  • In Hungary
  • List of Countries
  • For 7 days
  • Water Temperature
  • Satellite Maps
  • Weather Map
  • News
  • Weather Widgets
  • user-avatar
    Login

    Hourly Weather Somoto

    Today, 19 November, Monday

    Time Temperature Precipitation Wind Pressure Humidity
    00:00 +20°C° 0 mm 2 mps 698 mmHg 92%
    01:00 +20°C° 0 mm 2 mps 697 mmHg 92%
    02:00 +20°C° 0 mm 2 mps 697 mmHg 92%
    03:00 +20°C° 0 mm 2 mps 697 mmHg 92%
    04:00 +20°C° 0 mm 2 mps 697 mmHg 91%
    05:00 +20°C° 0 mm 2 mps 697 mmHg 91%
    06:00 +20°C° 0 mm 2 mps 698 mmHg 91%
    07:00 +21°C° 0 mm 2 mps 698 mmHg 83%
    08:00 +24°C° 0 mm 3 mps 699 mmHg 74%
    09:00 +26°C° 0 mm 4 mps 699 mmHg 66%
    10:00 +27°C° 0 mm 4 mps 699 mmHg 63%
    11:00 +28°C° 0 mm 4 mps 698 mmHg 59%
    12:00 +29°C° 0 mm 4 mps 698 mmHg 55%
    13:00 +29°C° 0 mm 4 mps 698 mmHg 55%
    14:00 +30°C° 0 mm 4 mps 697 mmHg 55%
    15:00 +30°C° 0 mm 4 mps 697 mmHg 54%
    16:00 +28°C° 0 mm 3 mps 697 mmHg 62%
    17:00 +26°C° 0 mm 2 mps 697 mmHg 69%
    18:00 +24°C° 0 mm 2 mps 697 mmHg 77%
    19:00 +23°C° 0 mm 2 mps 697 mmHg 80%
    20:00 +23°C° 0 mm 2 mps 698 mmHg 83%
    21:00 +21°C° 0 mm 2 mps 698 mmHg 86%
    22:00 +21°C° 0 mm 2 mps 698 mmHg 88%
    23:00 +21°C° 0 mm 2 mps 698 mmHg 89%

    Tomorrow, 20 November, Tuesday

    Time Temperature Precipitation Wind Pressure Humidity
    00:00 +20°C° 0 mm 2 mps 698 mmHg 91%
    01:00 +20°C° 0 mm 2 mps 698 mmHg 91%
    02:00 +20°C° 0 mm 2 mps 697 mmHg 91%
    03:00 +20°C° 0 mm 2 mps 697 mmHg 92%
    04:00 +20°C° 0 mm 2 mps 697 mmHg 91%
    05:00 +20°C° 0 mm 2 mps 697 mmHg 91%
    06:00 +20°C° 0 mm 2 mps 697 mmHg 91%
    07:00 +23°C° 0 mm 2 mps 698 mmHg 83%
    08:00 +24°C° 0 mm 3 mps 699 mmHg 75%
    09:00 +26°C° 0 mm 3 mps 700 mmHg 67%
    10:00 +27°C° 0 mm 4 mps 699 mmHg 63%
    11:00 +28°C° 0 mm 4 mps 699 mmHg 59%
    12:00 +29°C° 0 mm 4 mps 699 mmHg 54%
    13:00 +29°C° 0 mm 4 mps 698 mmHg 54%
    14:00 +30°C° 0 mm 4 mps 697 mmHg 54%
    15:00 +30°C° 0 mm 4 mps 697 mmHg 54%
    16:00 +28°C° 0 mm 3 mps 697 mmHg 61%
    17:00 +26°C° 0 mm 3 mps 697 mmHg 68%
    18:00 +24°C° 0 mm 2 mps 697 mmHg 75%
    19:00 +24°C° 0 mm 2 mps 698 mmHg 78%
    20:00 +23°C° 0 mm 2 mps 699 mmHg 82%
    21:00 +21°C° 0 mm 2 mps 699 mmHg 86%
    22:00 +21°C° 0 mm 2 mps 699 mmHg 87%
    23:00 +21°C° 0 mm 2 mps 699 mmHg 88%

    Day after tomorrow, 21 November, Wednesday

    Time Temperature Precipitation Wind Pressure Humidity
    00:00 +21°C° 0 mm 2 mps 699 mmHg 88%
    01:00 +21°C° 0 mm 2 mps 698 mmHg 89%
    02:00 +20°C° 0 mm 2 mps 698 mmHg 89%
    03:00 +20°C° 0 mm 2 mps 698 mmHg 89%
    04:00 +20°C° 0 mm 2 mps 698 mmHg 90%
    05:00 +20°C° 0 mm 2 mps 698 mmHg 91%
    06:00 +19°C° 0 mm 2 mps 698 mmHg 91%
    07:00 +21°C° 0 mm 2 mps 699 mmHg 83%
    08:00 +24°C° 0 mm 3 mps 700 mmHg 75%
    09:00 +25°C° 0 mm 4 mps 700 mmHg 66%
    10:00 +27°C° 0 mm 4 mps 700 mmHg 59%
    11:00 +28°C° 0 mm 4 mps 700 mmHg 51%
    12:00 +30°C° 0 mm 5 mps 699 mmHg 43%
    13:00 +30°C° 0 mm 5 mps 699 mmHg 43%
    14:00 +30°C° 0 mm 4 mps 698 mmHg 43%
    15:00 +30°C° 0 mm 4 mps 697 mmHg 43%
    16:00 +28°C° 0 mm 4 mps 697 mmHg 49%
    17:00 +26°C° 0 mm 3 mps 697 mmHg 55%
    18:00 +24°C° 0 mm 2 mps 698 mmHg 62%
    19:00 +23°C° 0 mm 2 mps 698 mmHg 67%
    20:00 +23°C° 0 mm 2 mps 699 mmHg 72%
    21:00 +21°C° 0 mm 2 mps 699 mmHg 77%
    22:00 +21°C° 0 mm 2 mps 699 mmHg 80%
    23:00 +21°C° 0 mm 2 mps 699 mmHg 84%

    22 November, Thursday

    Time Temperature Precipitation Wind Pressure Humidity
    00:00 +20°C° 0 mm 2 mps 698 mmHg 87%
    01:00 +20°C° 0 mm 2 mps 698 mmHg 88%
    02:00 +20°C° 0 mm 2 mps 698 mmHg 89%
    03:00 +20°C° 0 mm 2 mps 697 mmHg 90%
    04:00 +19°C° 0 mm 2 mps 697 mmHg 89%
    05:00 +19°C° 0 mm 2 mps 698 mmHg 89%
    06:00 +19°C° 0 mm 2 mps 698 mmHg 89%
    07:00 +21°C° 0 mm 2 mps 699 mmHg 79%
    08:00 +24°C° 0 mm 3 mps 699 mmHg 69%
    09:00 +26°C° 0 mm 3 mps 700 mmHg 60%
    10:00 +27°C° 0 mm 4 mps 699 mmHg 56%
    11:00 +28°C° 0 mm 4 mps 699 mmHg 52%
    12:00 +30°C° 0 mm 4 mps 698 mmHg 48%
    13:00 +30°C° 0 mm 4 mps 698 mmHg 48%
    14:00 +30°C° 0 mm 4 mps 697 mmHg 49%
    15:00 +30°C° 0 mm 4 mps 697 mmHg 49%
    16:00 +28°C° 0 mm 3 mps 697 mmHg 57%
    17:00 +26°C° 0 mm 2 mps 697 mmHg 65%
    18:00 +24°C° 0 mm 2 mps 697 mmHg 72%
    19:00 +23°C° 0 mm 2 mps 698 mmHg 76%
    20:00 +23°C° 0 mm 2 mps 698 mmHg 79%
    21:00 +21°C° 0 mm 2 mps 699 mmHg 83%
    22:00 +21°C° 0 mm 2 mps 698 mmHg 84%
    23:00 +20°C° 0 mm 2 mps 698 mmHg 85%

    23 November, Friday

    Time Temperature Precipitation Wind Pressure Humidity
    00:00 +20°C° 0 mm 2 mps 698 mmHg 87%
    01:00 +20°C° 0 mm 2 mps 697 mmHg 88%
    02:00 +20°C° 0 mm 2 mps 697 mmHg 90%
    03:00 +19°C° 0 mm 2 mps 696 mmHg 91%
    04:00 +19°C° 0 mm 2 mps 696 mmHg 91%
    05:00 +19°C° 0 mm 2 mps 697 mmHg 92%
    06:00 +19°C° 0 mm 2 mps 697 mmHg 92%
    07:00 +21°C° 0 mm 2 mps 698 mmHg 81%
    08:00 +24°C° 0 mm 2 mps 698 mmHg 70%
    09:00 +26°C° 0 mm 3 mps 699 mmHg 60%
    10:00 +28°C° 0 mm 3 mps 698 mmHg 53%
    11:00 +29°C° 0 mm 3 mps 698 mmHg 47%
    12:00 +31°C° 0 mm 3 mps 697 mmHg 40%
    13:00 +31°C° 0 mm 3 mps 697 mmHg 41%
    14:00 +31°C° 0 mm 3 mps 696 mmHg 41%
    15:00 +31°C° 0 mm 3 mps 695 mmHg 42%
    16:00 +29°C° 0 mm 2 mps 696 mmHg 50%
    17:00 +26°C° 0 mm 2 mps 696 mmHg 58%
    18:00 +24°C° 0 mm 2 mps 696 mmHg 66%
    19:00 +23°C° 0 mm 1 mps 696 mmHg 69%
    20:00 +22°C° 0 mm 1 mps 697 mmHg 73%
    21:00 +22°C° 0 mm 1 mps 697 mmHg 77%
    22:00 +21°C° 0 mm 1 mps 697 mmHg 79%
    23:00 +21°C° 0 mm 1 mps 697 mmHg 82%

    24 November, Saturday

    Time Temperature Precipitation Wind Pressure Humidity
    00:00 +20°C° 0 mm 1 mps 697 mmHg 84%
    01:00 +20°C° 0 mm 1 mps 696 mmHg 85%
    02:00 +20°C° 0 mm 1 mps 696 mmHg 87%
    03:00 +19°C° 0 mm 1 mps 695 mmHg 88%
    04:00 +19°C° 0 mm 1 mps 696 mmHg 89%
    05:00 +19°C° 0 mm 1 mps 696 mmHg 90%
    06:00 +19°C° 0 mm 1 mps 696 mmHg 91%
    07:00 +20°C° 0 mm 2 mps 697 mmHg 80%
    08:00 +24°C° 0 mm 2 mps 698 mmHg 69%
    09:00 +27°C° 0 mm 2 mps 698 mmHg 58%
    10:00 +28°C° 0 mm 2 mps 698 mmHg 54%
    11:00 +29°C° 0 mm 2 mps 697 mmHg 50%
    12:00 +31°C° 0 mm 2 mps 697 mmHg 46%
    13:00 +31°C° 0 mm 2 mps 696 mmHg 47%
    14:00 +31°C° 0 mm 2 mps 696 mmHg 48%
    15:00 +31°C° 0 mm 2 mps 695 mmHg 49%
    16:00 +28°C° 0 mm 2 mps 695 mmHg 58%
    17:00 +26°C° 0 mm 1 mps 695 mmHg 66%
    18:00 +24°C° 0 mm 1 mps 696 mmHg 75%
    19:00 +23°C° 0 mm 1 mps 696 mmHg 78%
    20:00 +23°C° 0 mm 1 mps 697 mmHg 81%
    21:00 +22°C° 0 mm 1 mps 697 mmHg 84%
    22:00 +22°C° 0 mm 1 mps 697 mmHg 85%
    23:00 +21°C° 0 mm 1 mps 697 mmHg 87%
    Show more